www.pogodaiklimat.ru

Погода и климат >> Архив погоды >> Индонезия >> Jayapura


ПОГОДА в Jayapura

  • Прогноз погоды в Jayapura
  • Монитор погоды в Jayapura
  • Климат города

АРХИВ ПОГОДЫ в Jayapura

Время (UTC), дата Ветер
(напр.,м/с)
 
Видим.   Явления Облачность Т
(С)
Тd
(С)
f
(%)
Тe
(С)
Тes
(С)
Комфортность P
(гПа)
Po
(гПа)
Тmin
(С)
Tmax
(С)
R
(мм)
R24
(мм)
S
(см)
06 8.08 В 5 9000 м мгла 5/3 420 м
[Cu hum Ac trans Ci sp]
+30.4 +26.7 81 +47 +50 опасность
перегрева
1007.5 1007.1
09 8.08 СВ 3 7000 м мгла 6/3 400 м
[Cb cap Ac trans Ci sp]
+28.8 +26.1 85 +43 +43 опасность
перегрева
1008.5 1008.1
12 8.08 В 4 6000 м мгла 8/3 420 м
[Cu med, cong Ac trans Ci sp]
+28.8 +26.1 85 +43 +43 опасность
перегрева
1011.2 1010.8 +32.0
21 8.08 З 2 8000 м осадки на расстоянии 6/4 400 м
[Cb cap Ac As Ci sp]
+26.4 +24.5 89 +37 +37 очень
душно
1011.3 1010.9
00 9.08 Ю 5 9000 м мгла {дождь} 6/3 420 м
[Cu med, cong Ac und Ci sp]
+28.4 +25.2 83 +41 +45 опасность
перегрева
1012.4 1010.2 +26.4
03 9.08 В 3 9000 м осадки на расстоянии 5/4 420 м
[Cb calv Ci fib]
+30.8 +25.7 74 +45 +55 опасность
перегрева
1009.7 1009.3
06 9.08 В 4 9000 м осадки на расстоянии 8/4 400 м
[Cb cap Ac lent Ci sp]
+30.4 +25.9 77 +45 +48 опасность
перегрева
1008.2 1007.9
09 9.08 СВ 3 8000 м мгла 8/4 400 м
[Cb cap Ac As Ci sp]
+29.2 +24 +24 комфорт 1009.0 1008.6
12 9.08 штиль 0 6000 м мгла 8/5 400 м
[Cb cap Ac As Ci sp]
+28.4 +26.3 88 +43 +43 опасность
перегрева
1011.3 1010.9 +31.8
21 9.08 штиль 0 9000 м мгла 6/3 420 м
[Cu med, cong Ci sp]
+25.8 +23.6 88 +35 +35 очень
душно
1010.8 1010.5
00 10.08 ЮВ 4 9000 м мгла 4/3 420 м
[Cu med, cong Ci fib]
+29.6 +26.1 82 +45 +50 опасность
перегрева
1012.1 1011.8 +25.8
03 10.08 СВ 4 8000 м осадки на расстоянии 5/4 400 м
[Cb cap Ac cuf Ci ing]
+31.6 +25.5 70 +46 +54 опасность
перегрева
1010.2 1009.9
06 10.08 СВ 6 9000 м мгла 5/4 400 м
[Cb cap Ac trans Ci fib]
+30.6 +25.4 74 +45 +46 опасность
перегрева
1008.1 1007.7
09 10.08 штиль 0 8000 м мгла 6/4 400 м
[Cb cap Ac trans Ci sp]
+29.0 +25.6 82 +43 +43 опасность
перегрева
1009.2 1008.9
12 10.08 штиль 0 6000 м мгла 8/4 400 м
[Cb cap Ac trans Ci sp]
+28.2 +25.0 83 +41 +41 опасность
перегрева
1011.5 1011.2 +32.8
21 10.08 штиль 0 5000 м мгла 6/1 420 м
[Cu hum Ac trans Ci sp]
+25.4 +23.7 90 +35 +35 очень
душно
1010.5 1010.2
00 11.08 ЮЗ 5 7000 м мгла 4/4 300 м
[]
+29.0 +23.5 72 +39 +43 очень
душно
1010.9 1010.6
03 11.08 В 4 8000 м осадки на расстоянии 5/4 400 м
[Cb cap Ac As Ci sp]
+31.0 +25.9 74 +46 +54 опасность
перегрева
1009.2 1008.9
06 11.08 В 6 8000 м мгла 5/4 400 м
[Cb cap Ci sp]
+32.4 +25.2 66 +46 +48 опасность
перегрева
1006.3 1006.0
09 11.08 СВ 7 6000 м осадки на расстоянии 9/5 400 м
[Cb cap Ac As Ci sp]
+29.4 +25.4 79 +43 +43 опасность
перегрева
1007.3 1007.0
12 11.08 штиль 0 5000 м осадки на расстоянии 9/5 400 м
[Cb cap Ac As Ci sp]
+28.0 +24.8 83 +40 +40 очень
душно
1010.1 1009.8 +33.3
21 11.08 З 2 5000 м осадки на расстоянии {дождь} 10/4 400 м
[Cb cap Ac As]
+25.4 +24.3 94 +35 +35 очень
душно
1010.5 1010.1 4
00 12.08 Ю 5 4000 м слабый дождь 10/5 300 м
[Cb cap Ac As]
+25.0 +23.9 94 +34 +35 очень
душно
1011.7 1011.3 +25.0 3
03 12.08 ЮЗ 4 6000 м осадки на расстоянии {дождь} 9/4 400 м
[Cb cap Ac As]
+27.6 +23.5 78 +37 +41 очень
душно
1009.9 1009.6 0.3
06 12.08 штиль 0 6000 м осадки на расстоянии 10/5 400 м
[Cb cap Ac As]
+28.0 +25.0 84 +40 +42 очень
душно
1009.0 1008.7 0.3
09 12.08 штиль 0 6000 м осадки на расстоянии 10/5 400 м
[Cb cap Ac As]
+27.2 +24.8 87 +39 +39 очень
душно
1009.5 1009.2
12 12.08 штиль 0 5000 м осадки на расстоянии 10/5 400 м
[Cb cap Ac As]
+26.2 +24.3 89 +36 +36 очень
душно
1011.2 1010.9 +28.8
21 12.08 З 2 8000 м мгла 6/4 400 м
[Cb cap Ac und Ci sp]
+24.4 +23.0 92 +32 +33 очень
душно
1010.6 1010.3
00 13.08 штиль 0 9000 м мгла 6/4 420 м
[Cu Sc Ac und Ci sp]
+28.8 +24.7 79 +41 +49 опасность
перегрева
1012.1 1011.7 +24.2 0.3
03 13.08 В 4 10 км 4/3 420 м
[Cu med, cong Ci fib]
+30.4 +25.3 74 +44 +54 опасность
перегрева
1009.9 1009.6
06 13.08 СВ 8 8000 м осадки на расстоянии 5/4 400 м
[Cb cap Ci sp]
+31.0 +25.4 72 +45 +46 опасность
перегрева
1007.4 1007.1
09 13.08 СВ 5 6000 м осадки на расстоянии 6/4 400 м
[Cb cap Ci sp]
+28.8 +25.0 80 +42 +42 опасность
перегрева
1008.5 1008.2
12 13.08 СЗ 3 5000 м осадки на расстоянии 9/5 400 м
[Cb cap Ac As Ci sp]
+27.4 +24.7 85 +39 +39 очень
душно
1011.2 1010.9 +32.0
21 13.08 З 2 9000 м мгла 8/5 420 м
[Cu Sc Ac und Ci sp]
+25.8 +23.9 89 +35 +35 очень
душно
1010.7 1010.4
00 14.08 ЮВ 3 11 км 4/3 420 м
[Cu med, cong Ac trans Ci fib]
+29.0 +25.8 83 +43 +50 опасность
перегрева
1011.3 1011.0 +25.8
03 14.08 штиль 0 7000 м в посл. час ливневой дождь 5/4 400 м
[Cb cap Ac cuf Ci fib]
+27.8 +25.7 88 +41 +56 опасность
перегрева
1009.4 1009.1 5
06 14.08 С 2 8000 м в посл. час ливневой дождь 6/4 400 м
[Cb cap Ac cuf Ci sp]
+28.0 +26.9 94 +44 +48 опасность
перегрева
1006.7 1006.4 2
09 14.08 СЗ 2 6000 м в посл. час ливневой дождь 9/5 400 м
[Cb cap Ac cuf Ci sp]
+27.6 +26.3 93 +42 +42 опасность
перегрева
1008.6 1008.3 1
12 14.08 СЗ 2 5000 м осадки на расстоянии 9/4 400 м
[Cb cap Ac As Ci sp]
+26.6 +25.5 94 +39 +39 очень
душно
1010.9 1010.6 +31.8 0.2
21 14.08 З 2 6000 м осадки на расстоянии 8/4 400 м
[Cb cap Ac As Ci sp]
+24.6 +23.5 94 +33 +33 очень
душно
1010.0 1009.7
00 15.08 ЮЗ 2 7000 м мгла 8/3 420 м
[Cu med, cong Ac As Ci sp]
+27.8 +24.0 80 +39 +45 очень
душно
1010.4 1010.1 +24.6 8
03 15.08 В 4 8000 м мгла 8/3 420 м
[Cu med, cong Ac As Ci sp]
+30.6 +25.5 74 +45 +51 опасность
перегрева
1008.3 1007.9

 

Местоположение метеостанции Jayapura (Индонезия): широта -2.59 долгота 140.71 высота над уровнем моря 3 м.

В архиве по умолчанию представлена погода в Jayapura за последнюю неделю. Архивные данные за месяц целиком и за предыдущие месяцы, начиная с января 2011 года, Вы можете получить, выбрав интересующий диапазон дат из раскрывающегося списка и нажав кнопку "Ввод!".


*Определитесь, кто Вы:
робот инопланетянин человек

Внимание! Время в таблицах - всемирное. Для получения местного времени необходимо прибавить поправку, которая в Jayapura равна 9 ч.

Смотрите также архив погоды в соседних городах и на ближайших метеорологических станциях:

Погода в Sentani Airport (Индонезия) (21 км)
Погода в Sarmi (Индонезия) (238 км)
Погода в Wamena (Индонезия) (256 км)
Погода в Tanah Merah (Индонезия) (393 км)
Погода в Kokonao (Индонезия) (450 км)
Погода в Enarotali (Индонезия) (504 км)
Погода в Serui (Индонезия) (504 км)
Погода в Biak (Индонезия) (535 км)
Погода в Nabire (Индонезия) (585 км)
Погода в Merauke (Индонезия) (655 км)

Пояснения к столбцам:

Ветер - указаны скорость ветра в м/с - средняя за 10 мин, порывы в срок и между сроками (в фигурных скобках) и направление, откуда дует ветер: С - северный, СВ - северо-восточный, В - восточный, ЮВ - юго-восточный, Ю - южный, ЮЗ - юго-западный, З - западный, СЗ - северо-западный.
Видимость - горизонтальная дальность видимости в метрах или километрах. При видимости от 1 до 10 км при отсутствии осадков обычно наблюдается дымка, при ухудшении видимости до 1 км и менее - туман. В сухую погоду видимость может ухудшаться дымом, пылью или мглою.
Явления - указаны атмосферные явления, наблюдавшиеся в срок или в последний час перед сроком; фигурными скобками обозначены явления, наблюдавшиеся между сроками (за 1-3 часа до срока); квадратными скобками обозначены град или гололедные отложения с указанием их диаметра в мм.
Облачность - указаны через наклонную черту общая и нижняя облачность в баллах и высота нижней границы облаков в метрах; квадратными скобками обозначены формы облаков: Ci - перистые, Cs - перисто-слоистые, Cc - перисто-кучевые, Ac - высококучевые, As - высокослоистые, Sc - слоисто-кучевые, Ns - слоисто-дождевые, Cu - кучевые, Cb - кучево-дождевые. Подробнее классификацию облаков см. в Атласе облаков (PDF).
T - Температура воздуха - температура, измеренная на высоте 2 м над землей.
Td - Температура точки росы - температура, при понижении до которой содержащийся в воздухе водяной пар достигнет насыщения.
f - Относительная влажность воздуха - влажноcть воздуха, измеренная на высоте 2 м над землей.
Te - Эффективная температура - температура, которую ощущает одетый по сезону человек в тени. Характеристика душности погоды. При расчете учитывается влияние влажности воздуха и скорости ветра на теплоощущения человека.
Tes - Эффективная температура на солнце - температура, которую ощущает человек, с поправкой на солнечный нагрев. Характеристика знойности погоды. Зависит от высоты солнца над горизонтом, облачности и скорости ветра. Ночью, в пасмурную погоду, а также при ветре 12 м/с и более поправка равна нулю.
P - Атмосферное давление - приведенное к уровню моря атмосферное давление.
Po - Атмосферное давление - измеренное на уровне метеостанции атмосферное давление.
Tmin - Минимальная температура - минимум температуры воздуха на высоте 2 м над землей.
Tmax - Максимальная температура - максимум температуры воздуха на высоте 2 м над землей.
R - Количество осадков - Количество выпавших осадков за период времени, мм. При наведении курсора мыши на число - период времени, за который выпало указанное количество осадков.
R24 - Количество осадков - Количество выпавших осадков за 24 часа, мм.
S - Снежный покров - Высота снежного покрова, см. При наведении курсора мыши на число - состояние снежного покрова и степень покрытия местности в баллах.